Home   Weather   Houston   Past weeks
Flag for USA

Past Weather in Houston, Texas, USA — Yesterday and Last 2 Weeks

Now
74 °F

Overcast.


Feels Like: 77 °F
Forecast: 80 / 65 °F
Wind: 12 mph from Southeast

Location: Houston Hobby Airport

Current Time: Apr 5, 2020 at 7:18:08 pm

Latest Report: Apr 5, 2020 at 5:53 pm


Visibility: 10 mi

Pressure: 30.00 "Hg

Humidity: 60%

Dew Point: 59 °F

Location of HoustonLocation

Past Weather in Houston — Graph

°F

Houston Temperature Yesterday

Maximum temperature yesterday: 71 °F (at 12:53 am)
Minimum temperature yesterday: 57 °F (at 8:53 am)
Average temperature yesterday: 62 °F

High & Low Weather Summary for the Past Weeks

 TemperatureHumidityPressure
High88 °F (Mar 24, 1:53 pm)93% (Mar 21, 10:44 pm)30.22 "Hg (Mar 21, 10:44 pm)
Low56 °F (Mar 29, 5:53 am)19% (Mar 29, 11:53 am)29.75 "Hg (Mar 27, 6:42 pm)
Average72 °F73%29.96 "Hg
* Reported Mar 21 5:53 pm — Apr 5 5:53 pm, Houston. Weather by CustomWeather, © 2020

Note: Actual official high and low records may vary slightly from our data, if they occured in-between our weather recording intervals... More about our weather records

Houston Weather History for the Previous 24 Hours

Scroll right to see more
 ConditionsComfort  
Time TempWeatherWind HumidityBarometerVisibility
5:53 pm
Sun, Apr 5
74 °FOvercast.12 mph60%30.00 "Hg10 mi
4:53 pm75 °FPartly sunny.13 mph58%29.99 "Hg10 mi
3:53 pm74 °FBroken clouds.13 mph60%30.00 "Hg10 mi
3:36 pm75 °FPartly sunny.14 mph58%29.99 "Hg10 mi
1:53 pm72 °FBroken clouds.15 mph68%30.03 "Hg10 mi
1:28 pm72 °FBroken clouds.15 mph68%30.03 "Hg10 mi
12:53 pm70 °FPartly sunny.13 mph71%30.05 "Hg10 mi
11:53 am69 °FPartly sunny.9 mph73%30.07 "Hg10 mi
11:40 am69 °FBroken clouds.12 mph73%30.06 "Hg10 mi
11:11 am68 °FBroken clouds.13 mph76%30.05 "Hg9 mi
10:53 am67 °FPartly sunny.13 mph81%30.06 "Hg8 mi
9:53 am63 °FMostly cloudy.13 mph87%30.06 "Hg7 mi
9:38 am62 °FFog.10 mph90%30.04 "Hg6 mi
8:53 am61 °FFog.9 mph90%30.06 "Hg5 mi
7:53 am63 °FFog.8 mph90%30.04 "Hg5 mi
6:53 am63 °FFog.6 mph90%30.01 "Hg6 mi
6:30 am63 °FFog.5 mph90%29.99 "Hg5 mi
5:53 am63 °FMostly cloudy.8 mph90%29.99 "Hg7 mi
4:53 am63 °FFog.12 mph90%29.96 "Hg5 mi
3:53 am62 °FFog.9 mph90%29.95 "Hg4 mi
2:53 am62 °FFog.10 mph90%29.97 "Hg2 mi
2:07 am62 °FFog.8 mph90%29.95 "Hg2 mi
12:53 am61 °FFog.8 mph93%29.97 "Hg6 mi
12:05 am61 °FLow clouds.10 mph90%29.97 "Hg8 mi
11:53 pm
Sat, Apr 4
61 °FLow clouds.8 mph93%29.97 "Hg8 mi
10:53 pm62 °FLight rain. Mostly cloudy.5 mph86%29.96 "Hg8 mi
9:53 pm61 °FPassing clouds.8 mph93%29.93 "Hg8 mi
8:53 pm61 °FPartly cloudy.7 mph90%29.96 "Hg10 mi
7:53 pm60 °FMostly cloudy.9 mph90%29.96 "Hg8 mi
Weather by CustomWeather, © 2020

See weather overview

Advertising